| time (UTC) | temp F | wind direction | speed MPH | gust MPH | rain 1hr in | rain 24hr in | rain mn in | humidity % | barometer mb |
| 20260509223539 | 64 | 151 | 0.0 | 5.0 | 0.00 | 0.00 | 0.00 | 68 | 1027.2 |
| 20260509222541 | 63 | 0.0 | 3.0 | 0.00 | 0.00 | 0.00 | 69 | 1027.2 | |
| 20260509221540 | 63 | 0.0 | 3.0 | 0.00 | 0.00 | 0.00 | 71 | 1027.0 | |
| 20260509220635 | 62 | 216 | 0.0 | 5.0 | 0.00 | 0.00 | 0.00 | 73 | 1026.8 |
| 20260509215643 | 60 | 0.0 | 0.0 | 0.00 | 0.00 | 0.00 | 75 | 1026.8 | |
| 20260509214635 | 58 | 0.0 | 0.0 | 0.00 | 0.00 | 0.00 | 80 | 1026.7 | |
| 20260509213643 | 56 | 0.0 | 0.0 | 0.00 | 0.00 | 0.00 | 85 | 1026.7 | |
| 20260509212635 | 55 | 0.0 | 0.0 | 0.00 | 0.00 | 0.00 | 86 | 1026.6 | |
| 20260509211724 | 54 | 0.0 | 0.0 | 0.00 | 0.00 | 0.00 | 87 | 1026.4 | |
| 20260509210635 | 54 | 0.0 | 0.0 | 0.00 | 0.00 | 0.00 | 87 | 1026.3 | |
| 20260509205643 | 53 | 0.0 | 0.0 | 0.00 | 0.00 | 0.00 | 87 | 1026.1 | |
| 20260509204635 | 53 | 0.0 | 0.0 | 0.00 | 0.00 | 0.00 | 87 | 1026.0 | |
| 20260509203643 | 53 | 0.0 | 0.0 | 0.00 | 0.00 | 0.00 | 87 | 1025.9 | |
| 20260509202635 | 53 | 0.0 | 0.0 | 0.00 | 0.00 | 0.00 | 86 | 1025.8 | |
| 20260509201643 | 53 | 0.0 | 0.0 | 0.00 | 0.00 | 0.00 | 86 | 1025.6 | |
| 20260509200541 | 53 | 0.0 | 0.0 | 0.00 | 0.00 | 0.00 | 86 | 1025.6 | |
| 20260509195541 | 53 | 0.0 | 0.0 | 0.00 | 0.00 | 0.00 | 86 | 1025.6 | |
| 20260509194543 | 53 | 0.0 | 0.0 | 0.00 | 0.00 | 0.00 | 85 | 1025.7 | |
| 20260509193539 | 54 | 0.0 | 0.0 | 0.00 | 0.00 | 0.00 | 85 | 1025.6 | |
| 20260509192541 | 54 | 0.0 | 0.0 | 0.00 | 0.00 | 0.00 | 85 | 1025.4 | |
| 20260509191539 | 54 | 0.0 | 0.0 | 0.00 | 0.00 | 0.00 | 84 | 1025.2 | |
| 20260509190541 | 54 | 0.0 | 0.0 | 0.00 | 0.00 | 0.00 | 84 | 1025.1 | |
| 20260509185540 | 54 | 0.0 | 0.0 | 0.00 | 0.00 | 0.00 | 84 | 1025.1 | |
| 20260509184543 | 55 | 0.0 | 0.0 | 0.00 | 0.00 | 0.00 | 84 | 1025.0 | |
| 20260509183539 | 55 | 0.0 | 0.0 | 0.00 | 0.00 | 0.00 | 84 | 1025.0 | |
| 20260509182541 | 54 | 0.0 | 0.0 | 0.00 | 0.00 | 0.00 | 84 | 1024.9 | |
| 20260509181539 | 54 | 0.0 | 0.0 | 0.00 | 0.00 | 0.00 | 84 | 1025.0 | |
| 20260509180542 | 54 | 0.0 | 0.0 | 0.00 | 0.00 | 0.00 | 84 | 1024.9 | |
| 20260509175724 | 54 | 0.0 | 0.0 | 0.00 | 0.00 | 0.00 | 84 | 1024.8 | |
| 20260509174635 | 54 | 0.0 | 0.0 | 0.00 | 0.00 | 0.00 | 83 | 1024.9 | |
| 20260509173644 | 54 | 0.0 | 0.0 | 0.00 | 0.00 | 0.00 | 83 | 1024.7 | |
| 20260509172636 | 54 | 0.0 | 0.0 | 0.00 | 0.00 | 0.00 | 82 | 1024.7 | |
| 20260509171724 | 55 | 0.0 | 0.0 | 0.00 | 0.00 | 0.00 | 82 | 1024.7 | |
| 20260509170635 | 55 | 0.0 | 0.0 | 0.00 | 0.00 | 0.00 | 82 | 1024.8 | |
| 20260509165645 | 55 | 0.0 | 0.0 | 0.00 | 0.00 | 0.00 | 81 | 1024.7 | |
| 20260509164635 | 55 | 0.0 | 0.0 | 0.00 | 0.00 | 0.00 | 80 | 1024.8 | |
| 20260509163644 | 56 | 0.0 | 0.0 | 0.00 | 0.00 | 0.00 | 80 | 1024.9 | |
| 20260509162636 | 55 | 0.0 | 0.0 | 0.00 | 0.00 | 0.00 | 82 | 1024.8 | |
| 20260509161643 | 55 | 0.0 | 0.0 | 0.00 | 0.00 | 0.00 | 84 | 1025.0 | |
| 20260509160635 | 54 | 0.0 | 0.0 | 0.00 | 0.00 | 0.00 | 85 | 1024.9 | |
| 20260509154541 | 54 | 0.0 | 0.0 | 0.00 | 0.00 | 0.00 | 85 | 1025.0 | |
| 20260509153539 | 54 | 0.0 | 0.0 | 0.00 | 0.00 | 0.00 | 85 | 1025.0 | |
| 20260509152541 | 54 | 0.0 | 0.0 | 0.00 | 0.00 | 0.00 | 86 | 1025.1 | |
| 20260509151539 | 54 | 0.0 | 0.0 | 0.00 | 0.00 | 0.00 | 85 | 1025.3 | |
| 20260509150541 | 54 | 0.0 | 0.0 | 0.00 | 0.00 | 0.00 | 85 | 1025.2 | |
| 20260509145724 | 55 | 0.0 | 0.0 | 0.00 | 0.00 | 0.00 | 85 | 1025.2 | |
| 20260509144636 | 55 | 0.0 | 0.0 | 0.00 | 0.00 | 0.00 | 85 | 1025.2 | |
| 20260509143643 | 55 | 0.0 | 0.0 | 0.00 | 0.00 | 0.00 | 85 | 1025.1 | |
| 20260509142635 | 55 | 0.0 | 0.0 | 0.00 | 0.00 | 0.00 | 84 | 1025.0 | |
| 20260509141806 | 55 | 0.0 | 0.0 | 0.00 | 0.00 | 0.00 | 84 | 1025.2 | |
| 20260509140715 | 55 | 0.0 | 0.0 | 0.00 | 0.00 | 0.00 | 83 | 1025.1 | |
| 20260509135700 | 55 | 0.0 | 0.0 | 0.00 | 0.00 | 0.00 | 83 | 1025.2 | |
| 20260509134542 | 56 | 0.0 | 0.0 | 0.00 | 0.00 | 0.00 | 82 | 1025.3 | |
| 20260509133541 | 57 | 0.0 | 0.0 | 0.00 | 0.00 | 0.00 | 80 | 1025.4 | |
| 20260509132541 | 57 | 0.0 | 0.0 | 0.00 | 0.00 | 0.00 | 80 | 1025.3 | |
| 20260509131643 | 57 | 0.0 | 0.0 | 0.00 | 0.00 | 0.00 | 80 | 1025.4 | |
| 20260509130715 | 57 | 0.0 | 0.0 | 0.00 | 0.00 | 0.00 | 81 | 1025.5 | |
| 20260509125619 | 57 | 0.0 | 0.0 | 0.00 | 0.00 | 0.00 | 81 | 1025.4 | |
| 20260509124541 | 57 | 0.0 | 0.0 | 0.00 | 0.00 | 0.00 | 79 | 1025.4 | |
| 20260509123539 | 58 | 234 | 0.0 | 3.0 | 0.00 | 0.00 | 0.00 | 80 | 1025.3 |
| 20260509122542 | 57 | 0.0 | 0.0 | 0.00 | 0.00 | 0.00 | 81 | 1025.5 | |
| 20260509121643 | 57 | 0.0 | 0.0 | 0.00 | 0.00 | 0.00 | 81 | 1025.5 | |
| 20260509120635 | 57 | 0.0 | 0.0 | 0.00 | 0.00 | 0.00 | 80 | 1025.4 | |
| 20260509115643 | 57 | 0.0 | 0.0 | 0.00 | 0.00 | 0.00 | 79 | 1025.5 | |
| 20260509114636 | 58 | 0.0 | 0.0 | 0.00 | 0.00 | 0.00 | 78 | 1025.4 | |
| 20260509113539 | 59 | 0.0 | 0.0 | 0.00 | 0.00 | 0.00 | 75 | 1025.4 | |
| 20260509112541 | 59 | 0.0 | 0.0 | 0.00 | 0.00 | 0.00 | 75 | 1025.4 | |
| 20260509111644 | 59 | 0.0 | 0.0 | 0.00 | 0.00 | 0.00 | 76 | 1025.5 | |
| 20260509110635 | 59 | 0.0 | 0.0 | 0.00 | 0.00 | 0.00 | 75 | 1025.5 | |
| 20260509105540 | 60 | 0.0 | 0.0 | 0.00 | 0.00 | 0.00 | 74 | 1025.4 | |
| 20260509104623 | 61 | 0.0 | 0.0 | 0.00 | 0.00 | 0.00 | 72 | 1025.5 | |
| 20260509103539 | 61 | 0.0 | 0.0 | 0.00 | 0.00 | 0.00 | 72 | 1025.3 | |
| 20260509102623 | 61 | 0.0 | 0.0 | 0.00 | 0.00 | 0.00 | 70 | 1025.3 | |
| 20260509101539 | 62 | 0.0 | 0.0 | 0.00 | 0.00 | 0.00 | 68 | 1025.2 | |
| 20260509100541 | 63 | 0.0 | 0.0 | 0.00 | 0.00 | 0.00 | 67 | 1025.3 | |
| 20260509095539 | 64 | 0.0 | 0.0 | 0.00 | 0.00 | 0.00 | 66 | 1025.2 | |
| 20260509094541 | 64 | 0.0 | 0.0 | 0.00 | 0.00 | 0.00 | 66 | 1025.0 | |
| 20260509093539 | 64 | 0.0 | 0.0 | 0.00 | 0.00 | 0.00 | 66 | 1024.7 | |
| 20260509092541 | 64 | 0.0 | 0.0 | 0.00 | 0.00 | 0.00 | 65 | 1024.7 | |
| 20260509091643 | 65 | 0.0 | 0.0 | 0.00 | 0.00 | 0.00 | 64 | 1024.8 | |
| 20260509090718 | 65 | 0.0 | 0.0 | 0.00 | 0.00 | 0.00 | 63 | 1024.6 | |
| 20260509085643 | 65 | 0.0 | 0.0 | 0.00 | 0.00 | 0.00 | 63 | 1024.5 | |
| 20260509084716 | 65 | 0.0 | 0.0 | 0.00 | 0.00 | 0.00 | 62 | 1024.3 | |
| 20260509083643 | 65 | 0.0 | 0.0 | 0.00 | 0.00 | 0.00 | 61 | 1024.1 | |
| 20260509082756 | 65 | 0.0 | 0.0 | 0.00 | 0.00 | 0.00 | 60 | 1024.1 | |
| 20260509081806 | 66 | 0.0 | 0.0 | 0.00 | 0.00 | 0.00 | 59 | 1023.9 | |
| 20260509080715 | 67 | 0.0 | 0.0 | 0.00 | 0.00 | 0.00 | 58 | 1023.9 | |
| 20260509074542 | 68 | 0.0 | 0.0 | 0.00 | 0.00 | 0.00 | 56 | 1023.7 | |
| 20260509073539 | 69 | 0.0 | 0.0 | 0.00 | 0.00 | 0.00 | 55 | 1023.6 | |
| 20260509072541 | 69 | 0.0 | 0.0 | 0.00 | 0.00 | 0.00 | 53 | 1023.5 | |
| 20260509071539 | 70 | 0.0 | 0.0 | 0.00 | 0.00 | 0.00 | 52 | 1023.6 | |
| 20260509070635 | 70 | 0.0 | 0.0 | 0.00 | 0.00 | 0.00 | 51 | 1023.4 | |
| 20260509065643 | 71 | 0.0 | 0.0 | 0.00 | 0.00 | 0.00 | 49 | 1023.2 | |
| 20260509064715 | 71 | 73 | 0.0 | 3.0 | 0.00 | 0.00 | 0.00 | 48 | 1023.0 |
| 20260509063645 | 72 | 0.0 | 3.0 | 0.00 | 0.00 | 0.00 | 49 | 1022.8 | |
| 20260509062635 | 72 | 80 | 0.0 | 8.0 | 0.00 | 0.00 | 0.00 | 48 | 1022.7 |
| 20260509061725 | 73 | 84 | 1.0 | 8.0 | 0.00 | 0.00 | 0.00 | 47 | 1022.6 |
| 20260509060635 | 73 | 82 | 1.0 | 10.0 | 0.00 | 0.00 | 0.00 | 47 | 1022.6 |
| 20260509055643 | 73 | 74 | 0.0 | 5.0 | 0.00 | 0.00 | 0.00 | 47 | 1022.5 |
| 20260509054635 | 73 | 70 | 2.0 | 10.0 | 0.00 | 0.00 | 0.00 | 47 | 1022.4 |
| 20260509053644 | 74 | 96 | 1.0 | 5.0 | 0.00 | 0.00 | 0.00 | 46 | 1022.4 |
| 20260509052635 | 74 | 0.0 | 0.0 | 0.00 | 0.00 | 0.00 | 46 | 1022.3 | |
| 20260509051645 | 75 | 74 | 1.0 | 5.0 | 0.00 | 0.00 | 0.00 | 46 | 1022.3 |
| 20260509050635 | 75 | 86 | 1.0 | 8.0 | 0.00 | 0.00 | 0.00 | 45 | 1022.3 |
| 20260509045643 | 74 | 78 | 1.0 | 8.0 | 0.00 | 0.00 | 0.00 | 45 | 1022.2 |
| 20260509044636 | 75 | 0.0 | 0.0 | 0.00 | 0.00 | 0.00 | 44 | 1022.2 | |
| 20260509043643 | 75 | 71 | 0.0 | 8.0 | 0.00 | 0.00 | 0.00 | 45 | 1022.2 |
| 20260509042635 | 74 | 0.0 | 0.0 | 0.00 | 0.00 | 0.00 | 46 | 1022.3 | |
| 20260509041541 | 75 | 99 | 0.0 | 5.0 | 0.00 | 0.00 | 0.00 | 46 | 1022.3 |
| 20260509040635 | 75 | 71 | 5.0 | 13.0 | 0.00 | 0.00 | 0.00 | 45 | 1022.3 |
| 20260509035643 | 78 | 79 | 0.0 | 5.0 | 0.00 | 0.00 | 0.00 | 43 | 1022.3 |
| 20260509034635 | 78 | 0.0 | 0.0 | 0.00 | 0.00 | 0.00 | 43 | 1022.3 | |
| 20260509033643 | 76 | 0.0 | 3.0 | 0.00 | 0.00 | 0.00 | 46 | 1022.3 | |
| 20260509032637 | 76 | 0.0 | 0.0 | 0.00 | 0.00 | 0.00 | 47 | 1022.4 | |
| 20260509031643 | 76 | 83 | 0.0 | 5.0 | 0.00 | 0.00 | 0.00 | 46 | 1022.5 |
| 20260509030635 | 77 | 67 | 1.0 | 8.0 | 0.00 | 0.00 | 0.00 | 45 | 1022.6 |
| 20260509025643 | 75 | 74 | 2.0 | 8.0 | 0.00 | 0.00 | 0.00 | 48 | 1022.7 |
| 20260509024636 | 76 | 74 | 2.0 | 8.0 | 0.00 | 0.00 | 0.00 | 46 | 1022.8 |
| 20260509023643 | 78 | 0.0 | 0.0 | 0.00 | 0.00 | 0.00 | 44 | 1022.9 | |
| 20260509022635 | 75 | 45 | 0.0 | 3.0 | 0.00 | 0.00 | 0.00 | 47 | 1023.1 |
| 20260509021643 | 74 | 62 | 1.0 | 8.0 | 0.00 | 0.00 | 0.00 | 48 | 1023.3 |
| 20260509020541 | 74 | 0.0 | 0.0 | 0.00 | 0.00 | 0.00 | 47 | 1023.4 | |
| 20260509015540 | 75 | 179 | 0.0 | 3.0 | 0.00 | 0.00 | 0.00 | 45 | 1023.6 |
| 20260509014543 | 74 | 78 | 0.0 | 3.0 | 0.00 | 0.00 | 0.00 | 46 | 1023.8 |
| 20260509013539 | 73 | 0.0 | 0.0 | 0.00 | 0.00 | 0.00 | 48 | 1023.9 | |
| 20260509012623 | 72 | 200 | 0.0 | 5.0 | 0.00 | 0.00 | 0.00 | 47 | 1024.0 |
| 20260509011539 | 70 | 0.0 | 0.0 | 0.00 | 0.00 | 0.00 | 49 | 1024.1 | |
| 20260509010636 | 69 | 0.0 | 0.0 | 0.00 | 0.00 | 0.00 | 50 | 1024.1 | |
| 20260509005643 | 69 | 0.0 | 0.0 | 0.00 | 0.00 | 0.00 | 50 | 1024.2 | |
| 20260509004635 | 68 | 0.0 | 0.0 | 0.00 | 0.00 | 0.00 | 51 | 1024.2 | |
| 20260509003645 | 69 | 0.0 | 0.0 | 0.00 | 0.00 | 0.00 | 50 | 1024.3 | |
| 20260509002717 | 68 | 0.0 | 0.0 | 0.00 | 0.00 | 0.00 | 50 | 1024.4 | |
| 20260509001643 | 67 | 0.0 | 0.0 | 0.00 | 0.00 | 0.00 | 51 | 1024.5 | |
| 20260509000635 | 67 | 220 | 0.0 | 3.0 | 0.00 | 0.00 | 0.00 | 50 | 1024.4 |
| 20260508235642 | 69 | 0.0 | 0.0 | 0.00 | 0.00 | 0.00 | 49 | 1024.4 | |
| 20260508234756 | 68 | 210 | 0.0 | 3.0 | 0.00 | 0.00 | 0.00 | 50 | 1024.5 |
| 20260508233726 | 66 | 184 | 0.0 | 3.0 | 0.00 | 0.00 | 0.00 | 51 | 1024.4 |
| 20260508232635 | 66 | 0.0 | 0.0 | 0.00 | 0.00 | 0.00 | 53 | 1024.3 | |
| 20260508231644 | 63 | 199 | 0.0 | 5.0 | 0.00 | 0.00 | 0.00 | 56 | 1024.2 |
| 20260508230622 | 62 | 0.0 | 0.0 | 0.00 | 0.00 | 0.00 | 58 | 1024.1 | |
| 20260508225619 | 62 | 192 | 0.0 | 3.0 | 0.00 | 0.00 | 0.00 | 58 | 1024.2 |
| 20260508224541 | 60 | 0.0 | 0.0 | 0.00 | 0.00 | 0.00 | 60 | 1024.1 |